Hourly Data Report for October 13, 2015

All times are specified in Local Standard Time (LST). Add 1 hour to adjust for Daylight Saving Time where and when it is observed.

CAPE DORSET A
NUNAVUT

64°13'49.000" N
76°31'30.000" W
48.20 m
2400637
71366
YTE

Download Data

Hourly Data (October 2015)
Hourly Data Report for October 13, 2015
Temp Definition
°C
Dew Point Temp Definition
°C
Rel Hum Definition
%
Wind Dir Definition
10's deg

Wind Spd Definition
km/h
Visibility Definition
km
Stn Press Definition
kPa
Hmdx Definition


Wind Chill Definition


Weather Definition


TIME
00:00 Legend Double Dagger -3.9 -4.0 99 27 5 4.8 99.38   -6 Snow
01:00 Legend Double Dagger -3.6 -4.0 97 LegendMM 4 9.7 99.34   -5 Snow
02:00 Legend Double Dagger -3.0 -3.7 95 25 17 6.4 99.29   -9 Snow
03:00 Legend Double Dagger -3.2 -4.3 92 25 21 8.1 99.26   -9 Snow
04:00 Legend Double Dagger -3.2 -4.0 94 24 17 6.4 99.20   -9 Snow
05:00 Legend Double Dagger -3.5 -5.7 85 26 22 16.1 99.15   -10 Snow
06:00 Legend Double Dagger -3.4 -7.4 74 26 17 16.1 99.16   -9 LegendNANA
07:00 Legend Double Dagger -3.5 -7.9 72 25 21 16.1 99.13   -10 LegendNANA
08:00 Legend Double Dagger -3.2 -7.0 75 26 22 16.1 99.12   -10 LegendNANA
09:00 Legend Double Dagger -3.2 -6.3 79 26 15 16.1 99.13   -8 LegendNANA
10:00 Legend Double Dagger -3.1 -5.2 86 25 21 16.1 99.09   -9 Snow
11:00 Legend Double Dagger -2.4 -6.1 76 25 8 16.1 99.06   -6 Snow
12:00 Legend Double Dagger -2.2 -6.2 74 22 15 16.1 99.05   -7 Snow
13:00 Legend Double Dagger -2.4 -5.1 82 20 15 12.9 99.04   -7 Snow
14:00 Legend Double Dagger -2.4 -4.6 85 20 18 16.1 99.02   -8 Snow
15:00 Legend Double Dagger -2.5 -7.1 71 24 21 16.1 99.00   -9 Snow
16:00 Legend Double Dagger -4.5 -6.8 84 29 32 16.1 99.07   -13 Snow
17:00 Legend Double Dagger -4.9 -7.7 81 29 32 16.1 99.13   -13 Snow
18:00 Legend Double Dagger -5.6 -9.2 76 29 22 16.1 99.20   -13 LegendNANA
19:00 Legend Double Dagger -6.0 -7.8 87 28 24 16.1 99.23   -13 LegendNANA
20:00 Legend Double Dagger -6.7 -8.7 86 30 21 16.1 99.30   -14 LegendNANA
21:00 Legend Double Dagger -6.8 -9.1 84 28 17 16.1 99.32   -13 LegendNANA
22:00 Legend Double Dagger -5.3 -7.8 83 28 24 16.1 99.33   -13 Snow
23:00 Legend Double Dagger -5.1 -8.6 77 27 28 16.1 99.35   -13 Snow

Notes on Data Quality.

Legend

  • E = Estimated
  • M = Missing
  • NA = Not Available
  • ‡ = Partner data that is not subject to review by the National Climate Archives
Date modified: